Jonesboro, AR

3:50 AM CDT on March 23, 2017 (GMT -0500)
Jonesboro Municipal

Weather History for KJBR - December, 2012

Change the Weather History Date:

Thursday, December 20, 2012

  Actual Average Record
Temperature  
Mean Temperature 50 °F 38 °F  
Max Temperature 64 °F 47 °F 74 °F (1931)
Min Temperature 35 °F 30 °F 8 °F (1929)
Degree Days  
Heating Degree Days 15 27  
Month to date heating degree days 260 492  
Since 1 July heating degree days 943 1142  
Cooling Degree Days 0 0  
Month to date cooling degree days 2 0  
Year to date cooling degree days 2345 1827  
Moisture  
Dew Point 40 °F    
Average Humidity 64    
Maximum Humidity 86    
Minimum Humidity 41    
Precipitation  
Precipitation 0.44 in 0.14 in 2.38 in (1926)
Month to date precipitation 2.50 3.22  
Year to date precipitation 32.38 46.55  
Snow  
Snow 0.00 in - - ()
Month to date snowfall T  
Snow Depth 0.00 in    
Sea Level Pressure  
Sea Level Pressure 29.70 in    
Wind  
Wind Speed 21 mph (WSW)    
Max Wind Speed 38 mph    
Max Gust Speed 53 mph    
Visibility 9 miles    
Events Rain , Snow , Thunderstorm    
T = Trace of Precipitation, MM = Missing Value Source: NWS Daily Summary

Daily Weather History Graph

Daily Weather History Graph

Search for Another Location

Airport or City:

Trip Planner

Search our weather history database for the weather conditions in past years. The results will help you decide how hot, cold, wet, or windy it might be!

Date:

Astronomy

Dec. 20, 2012 Rise Set
Actual Time 7:08 AM CST 4:52 PM CST
Civil Twilight 6:40 AM CST 5:20 PM CST
Nautical Twilight 6:08 AM CST 5:52 PM CST
Astronomical Twilight 5:36 AM CST 6:24 PM CST
Moon 12:01 PM CST (12/20) 12:06 AM CST (12/20)
Length of Visible Light 10h 40m
Length of Day
9h 43m
First Quarter, 55% of the Moon is Illuminated
Dec 20
First Quarter
Dec 28
Full
Jan 4
Last Quarter
Jan 11
New
Jan 18
First Quarter

Hourly Weather History & Observations

Time (CST) Temp. Windchill Dew Point Humidity Pressure Visibility Wind Dir Wind Speed Gust Speed Precip Events Conditions
12:24 AM 62.6 °F - 51.8 °F 68% 29.56 in 10.0 mi South 21.9 mph 31.1 mph N/A   Mostly Cloudy
12:53 AM 62.1 °F - 53.1 °F 72% 29.53 in 10.0 mi South 21.9 mph 32.2 mph N/A   Overcast
1:16 AM 62.6 °F - 53.6 °F 72% 29.52 in 10.0 mi South 17.3 mph 26.5 mph N/A   Overcast
1:38 AM 62.6 °F - 55.4 °F 77% 29.50 in 10.0 mi South 23.0 mph 29.9 mph N/A   Overcast
1:53 AM 62.1 °F - 55.0 °F 78% 29.49 in 10.0 mi South 19.6 mph 29.9 mph N/A   Overcast
2:31 AM 64.4 °F - 57.2 °F 77% 29.45 in 10.0 mi South 21.9 mph 27.6 mph N/A Thunderstorm Overcast
2:42 AM 62.6 °F - 57.2 °F 82% 29.53 in 1.5 mi West 24.2 mph 44.9 mph 0.13 in Rain , Thunderstorm Heavy Rain
2:49 AM 60.8 °F - 57.2 °F 88% 29.52 in 1.0 mi SW 13.8 mph 39.1 mph 0.26 in Rain , Thunderstorm Light Rain
2:53 AM 60.1 °F - 57.0 °F 90% 29.52 in 3.0 mi WSW 17.3 mph 24.2 mph 0.26 in Rain , Thunderstorm Light Rain
3:06 AM 60.8 °F - 57.2 °F 88% 29.52 in 5.0 mi WSW 12.7 mph - 0.04 in Rain , Thunderstorm Thunderstorms and Rain
3:28 AM 59.0 °F - 55.4 °F 88% 29.51 in 7.0 mi SW 11.5 mph - 0.09 in Rain Light Rain
3:53 AM 57.9 °F - 55.9 °F 93% 29.49 in 5.0 mi SW 10.4 mph - 0.14 in Rain Light Rain
4:51 AM 57.2 °F - 53.6 °F 88% 29.48 in 10.0 mi SSW 12.7 mph 20.7 mph 0.04 in Rain Light Rain
4:53 AM 57.0 °F - 54.0 °F 89% 29.47 in 10.0 mi SSW 13.8 mph 20.7 mph 0.04 in Rain Light Rain
5:25 AM 55.4 °F - 53.6 °F 94% 29.50 in 10.0 mi SW 16.1 mph - 0.00 in   Overcast
5:50 AM 57.2 °F - 51.8 °F 82% 29.50 in 10.0 mi SW 27.6 mph 34.5 mph 0.00 in   Mostly Cloudy
5:53 AM 57.2 °F - 51.8 °F 82% 29.50 in 10.0 mi WSW 21.9 mph 34.5 mph N/A   Mostly Cloudy
6:17 AM 53.6 °F - 42.8 °F 67% 29.52 in 10.0 mi WSW 32.2 mph 43.7 mph N/A   Mostly Cloudy
6:25 AM 53.6 °F - 39.2 °F 58% 29.53 in 10.0 mi WSW 35.7 mph 43.7 mph N/A   Scattered Clouds
6:53 AM 50.0 °F - 37.9 °F 63% 29.55 in 10.0 mi WSW 28.8 mph 42.6 mph N/A   Clear
7:53 AM 48.0 °F - 37.9 °F 68% 29.58 in 10.0 mi WSW 25.3 mph 35.7 mph N/A   Mostly Cloudy
8:53 AM 46.0 °F 37.4 °F 36.0 °F 68% 29.65 in 10.0 mi WSW 25.3 mph 39.1 mph N/A   Overcast
9:53 AM 44.1 °F 33.2 °F 30.0 °F 58% 29.70 in 10.0 mi West 35.7 mph 49.5 mph N/A   Overcast
10:53 AM 43.0 °F 33.8 °F 27.0 °F 53% 29.75 in 10.0 mi West 23.0 mph 44.9 mph N/A   Overcast
11:53 AM 41.0 °F 29.5 °F 26.1 °F 55% 29.78 in 10.0 mi West 32.2 mph 40.3 mph N/A   Overcast
12:53 PM 42.1 °F 32.3 °F 28.0 °F 58% 29.81 in 10.0 mi West 24.2 mph 36.8 mph N/A   Overcast
1:53 PM 43.0 °F 33.8 °F 28.9 °F 58% 29.84 in 10.0 mi WNW 23.0 mph 39.1 mph N/A   Overcast
2:53 PM 45.0 °F 35.6 °F 27.0 °F 49% 29.88 in 10.0 mi WNW 27.6 mph 42.6 mph N/A   Mostly Cloudy
3:53 PM 42.1 °F 32.8 °F 27.0 °F 55% 29.94 in 10.0 mi West 21.9 mph 36.8 mph N/A   Mostly Cloudy
4:53 PM 41.0 °F 31.9 °F 23.0 °F 49% 29.99 in 10.0 mi WNW 19.6 mph 40.3 mph N/A   Clear
5:53 PM 41.0 °F 31.9 °F 21.9 °F 47% 30.01 in 10.0 mi West 19.6 mph 27.6 mph N/A   Clear
6:53 PM 41.0 °F 31.4 °F 19.0 °F 41% 30.04 in 10.0 mi WNW 21.9 mph 29.9 mph N/A   Clear
7:53 PM 39.0 °F 29.3 °F 19.0 °F 45% 30.08 in 10.0 mi WNW 19.6 mph 28.8 mph N/A   Clear
8:53 PM 37.9 °F 28.5 °F 19.0 °F 47% 30.10 in 10.0 mi WNW 17.3 mph 28.8 mph 0.00 in Snow Light Snow
9:53 PM 37.9 °F 30.0 °F 18.0 °F 45% 30.13 in 9.0 mi WNW 12.7 mph 27.6 mph 0.00 in Snow Light Snow
10:53 PM 36.0 °F 27.1 °F 19.0 °F 50% 30.15 in 9.0 mi West 13.8 mph 23.0 mph 0.00 in Snow Light Snow
11:53 PM 35.1 °F 25.2 °F 19.0 °F 52% 30.16 in 9.0 mi WNW 16.1 mph 23.0 mph 0.00 in Snow Light Snow